Location: NJAA Observatory
(40.6819°N, 74.8979°W)
Time: 10:34:20
(UTC-04:00)

Iridium 56 - Visible Passes

Search period start: 25 April 2018 00:00
Search period end: 05 May 2018 00:00
Orbit: 776 x 779 km, 86.4° (Epoch: 24 April)

Date Brightness Start Highest point End Pass type
(mag) Time Alt. Az. Time Alt. Az. Time Alt. Az.
25 Apr 7.4 01:02:25 25° NE 01:02:25 25° NE 01:04:51 10° NNE visible
25 Apr 7.5 02:42:53 19° NW 02:42:53 19° NW 02:45:05 10° NNW visible
26 Apr 7.8 00:28:55 17° NE 00:28:55 17° NE 00:30:37 10° NNE visible
26 Apr 7.1 02:09:23 28° NNW 02:09:23 28° NNW 02:12:08 10° N visible
27 Apr 7.0 01:35:52 34° N 01:35:52 34° N 01:38:48 10° N visible
28 Apr 7.1 01:02:21 31° NNE 01:02:21 31° NNE 01:05:10 10° NNE visible
28 Apr 7.7 02:42:49 15° NW 02:42:49 15° NW 02:44:30 10° NW visible
29 Apr 7.5 00:28:50 22° NE 00:28:50 22° NE 00:31:13 10° NNE visible
29 Apr 7.3 02:09:18 24° NW 02:09:18 24° NW 02:11:56 10° NNW visible
29 Apr 7.8 23:55:18 14° NE 23:55:18 14° NE 23:56:40 10° NE visible
30 Apr 6.9 01:35:46 34° NNW 01:35:46 34° NNW 01:38:49 10° N visible
01 May 6.8 01:02:14 37° N 01:02:14 37° N 01:05:22 10° N visible
01 May 8.0 02:42:42 11° WNW 02:42:42 11° WNW 02:43:13 10° NW visible
02 May 7.1 00:28:42 30° NE 00:28:42 30° NE 00:31:37 10° NNE visible
02 May 7.5 02:09:09 19° NW 02:09:09 19° NW 02:11:33 10° NNW visible
02 May 7.5 23:55:09 20° NE 23:55:09 20° NE 23:57:29 10° NNE visible
03 May 7.0 01:35:37 29° NW 01:35:37 29° NW 01:38:43 10° NNW visible
03 May 7.9 23:21:36 12° ENE 23:21:36 12° ENE 23:22:28 10° NE visible
04 May 6.7 01:02:04 40° NNW 01:02:04 40° NNW 01:05:27 10° N visible
